📊 Raw Sensor Data
Showing records 39601 to 39625 of 84,948 total
| ID | Distance (ft) | Battery V | Battery A | Int Temp (°F) | Int Humid (%) | Ext Temp (°F) | Solar V | RSSI | SNR | Time Stamp |
|---|---|---|---|---|---|---|---|---|---|---|
| 45360 | 15.2 | 3.85 | 0 | 88 | 49 | 80 | 5.10 | -75 | 8 | 07/04/2025 06:00 PM |
| 45359 | 15.2 | 3.85 | 0 | 90 | 48 | 81 | 5.10 | -75 | 8 | 07/04/2025 05:45 PM |
| 45358 | 15.2 | 3.85 | 0 | 91 | 47 | 82 | 5.10 | -74 | 8 | 07/04/2025 05:30 PM |
| 45357 | 15.2 | 3.85 | 0 | 92 | 46 | 83 | 5.10 | -77 | 7 | 07/04/2025 05:00 PM |
| 45356 | 15.2 | 3.85 | 0 | 92 | 46 | 84 | 5.10 | -76 | 8 | 07/04/2025 04:45 PM |
| 45355 | 15.2 | 3.85 | 0 | 92 | 46 | 85 | 5.10 | -76 | 7 | 07/04/2025 04:30 PM |
| 45354 | 15.2 | 3.85 | 0 | 92 | 45 | 84 | 5.10 | -76 | 7 | 07/04/2025 04:15 PM |
| 45353 | 15.2 | 3.86 | 0 | 92 | 45 | 84 | 5.10 | -75 | 8 | 07/04/2025 04:00 PM |
| 45352 | 15.2 | 3.86 | 0 | 92 | 44 | 85 | 5.10 | -76 | 8 | 07/04/2025 03:45 PM |
| 45351 | 15.2 | 3.86 | 0 | 93 | 44 | 86 | 5.10 | -78 | 8 | 07/04/2025 03:30 PM |
| 45350 | 15.2 | 3.86 | 0 | 93 | 43 | 86 | 5.10 | -75 | 8 | 07/04/2025 03:15 PM |
| 45349 | 15.2 | 3.86 | 0 | 93 | 42 | 87 | 5.10 | -78 | 7 | 07/04/2025 03:00 PM |
| 45348 | 15.2 | 3.86 | 0 | 92 | 42 | 87 | 5.10 | -76 | 7 | 07/04/2025 02:45 PM |
| 45347 | 15.2 | 3.97 | 0 | 91 | 42 | 85 | 5.10 | -76 | 7 | 07/04/2025 02:30 PM |
| 45346 | 15.2 | 3.86 | 0 | 90 | 42 | 83 | 5.10 | -74 | 8 | 07/04/2025 02:15 PM |
| 45345 | 15.2 | 3.86 | 0 | 89 | 42 | 82 | 5.10 | -75 | 8 | 07/04/2025 02:00 PM |
| 45344 | 15.2 | 4.00 | 0 | 88 | 42 | 83 | 5.10 | -67 | 8 | 07/04/2025 01:30 PM |
| 45343 | 15.2 | 3.86 | 0 | 86 | 43 | 81 | 5.10 | -68 | 8 | 07/04/2025 01:15 PM |
| 45342 | 15.2 | 3.86 | 0 | 85 | 43 | 80 | 5.10 | -67 | 8 | 07/04/2025 01:00 PM |
| 45341 | 15.2 | 3.93 | 0 | 84 | 44 | 80 | 5.10 | -68 | 8 | 07/04/2025 12:45 PM |
| 45340 | 15.2 | 3.86 | 0 | 83 | 44 | 79 | 5.10 | -69 | 8 | 07/04/2025 12:30 PM |
| 45339 | 15.2 | 3.85 | 0 | 83 | 44 | 82 | 5.10 | -69 | 7 | 07/04/2025 12:15 PM |
| 45338 | 15.3 | 3.85 | 0 | 82 | 43 | 81 | 5.10 | -67 | 7 | 07/04/2025 12:00 PM |
| 45337 | 15.3 | 4.05 | 0 | 81 | 44 | 83 | 5.10 | -70 | 7 | 07/04/2025 11:45 AM |
| 45336 | 15.3 | 3.85 | 0 | 81 | 43 | 83 | 5.10 | -69 | 7 | 07/04/2025 11:30 AM |